Location: Kile Knob Observatory
(38.6083°N, 79.4792°W)
Time: 18:05:42
(UTC-04:00)

Tiangong 2 - Pass Details

Date: 25 May 2019
Orbit: 376 x 389 km, 42.8° (Epoch: 20 June)

Event Time Altitude Azimuth Distance (km) Brightness Sun altitude
Rises 21:19:24 0° 279° (W) 2,234 6.2 -8.8°
Reaches altitude 10° 21:21:33 10° 288° (WNW) 1,381 5.2 -9.1°
Maximum altitude 21:24:28 36° 357° (N) 617 2.5 -9.6°
Drops below altitude 10° 21:27:22 10° 66° (ENE) 1,379 3.6 -10.0°
Enters shadow 21:28:34 - 73° (ENE) 1,844 4.2 -10.2°
